Current weather by "City, St" or "zip code"  
 
Advertise Here

Current Conditions: Bellingham, Bellingham International Airport, WA

Fair


57.0 F

Last Updated on May 30 2020, 12:53 am PDT
Humidity: 64%
Wind Speed: S 5.8 mph
Barometer 29.83 in
Dewpoint: 45.0 F
Visibility: 10.00 mi
Precip: --
Heat Index: NA
Wind Chill: 56 F
Current conditions at:

Bellingham, Bellingham International Airport, WA (KBLI)

Lat: 48.79911 Lon: 122.54064

Local Radar Image active severe weather and emergency alerts image image weather storm and storm spotter reports image weather observation monitoring service image
Local
Radar
Active
Alerts
Storm Reports Obs
Monitoring

Sign-up For Email & Text Message Weather Alert Notification Services


Advertise Here

Observation History for Bellingham, Bellingham International Airport, WA


Time Wind
(mph)
Vis
(mi)
Weather Precip (in) Temperature (F) Relative
Humidity
Wind
Chill
(F)
Heat
Index
(F)
Pressure
Air Dwpt altimeter
(in)
sea level
(mb)
Rmks
12:53 am PDT S 5.8 10.00 Fair -- 57.0 45.0 64% 56 NA 29.83 1010.6
11:53 pm PDT S 6.9 10.00 Fair -- 58.0 44.1 60% 57 NA 29.83 1010.8
10:53 pm PDT S 10.4 10.00 Fair -- 58.0 45.0 62% 56 NA 29.84 1011.1
9:53 pm PDT S 8.1 10.00 Fair -- 60.0 45.0 58% 59 NA 29.84 1011.0
8:53 pm PDT S 6.9 10.00 Partly Cloudy -- 61.0 46.9 60% 60 NA 29.85 1011.3
7:53 pm PDT S 5.8 10.00 Partly Cloudy -- 65.0 51.1 61% NA NA 29.84 1011.2
6:53 pm PDT S 3.5 10.00 Partly Cloudy -- 67.0 51.1 57% NA NA 29.86 1011.6
5:53 pm PDT S 4.6 10.00 Fair -- 69.0 52.0 55% NA NA 29.87 1012.1
4:53 pm PDT S 6.9 10.00 A Few Clouds -- 70.0 53.1 55% NA NA 29.88 1012.5
3:53 pm PDT S 6.9 10.00 Fair -- 70.0 52.0 53% NA NA 29.90 1012.9
2:53 pm PDT 5.8 10.00 Fair -- 69.0 52.0 55% NA NA 29.91 1013.3
1:53 pm PDT S 5.8 10.00 Fair -- 69.0 53.1 57% NA NA 29.92 1013.6
12:53 pm PDT 6.9 10.00 Fair -- 67.0 53.1 61% NA NA 29.93 1014.0
11:53 am PDT 4.6 10.00 Fair -- 66.0 52.0 61% NA NA 29.94 1014.4
10:53 am PDT 5.8 10.00 Fair -- 62.0 51.1 67% 62 NA 29.95 1014.8
9:53 am PDT S 10.4 10.00 Fair -- 61.0 51.1 70% 60 NA 29.96 1015.0
8:53 am PDT S 6.9 10.00 Fair -- 61.0 51.1 70% 60 NA 29.96 1015.1
7:53 am PDT S 8.1 10.00 Fair -- 59.0 51.1 75% 58 NA 29.96 1015.2
6:53 am PDT S 9.2 10.00 Fair -- 57.0 50.0 78% 55 NA 29.95 1014.8
5:53 am PDT S 6.9 10.00 Fair -- 57.0 50.0 78% 56 NA 29.94 1014.2
4:53 am PDT S 4.6 10.00 Fair -- 56.0 48.9 77% 55 NA 29.93 1014.0
3:53 am PDT S 8.1 10.00 Fair -- 57.0 48.9 74% 55 NA 29.92 1013.6
2:53 am PDT S 4.6 10.00 Fair -- 58.0 50.0 75% 58 NA 29.92 1013.7
1:53 am PDT S 5.8 10.00 Fair -- 60.0 50.0 70% 60 NA 29.92 1013.7

Regional Weather Observation


Eastsound, Orcas Island Airport, WA (KORS)

NULL
63.0 F

Burlington/Mount Vernon, Skagit Regional Airport, WA (KBVS)

Partly Cloudy
52.0 F

Friday Harbor Airport, WA (KFHR)

Fair
52.0 F

Whidbey Island Naval Air Station - Ault Field, WA (KNUW)

Mostly Cloudy
52.0 F

Arlington Municipal Airport, WA (KAWO)

Fair
52.0 F

Port Angeles Fairchild International Airport, WA (KCLM)

Fair
52.0 F